Weather in Mechetinskaya

Russia / Rostov Oblast     46°46′35″N   40°27′34″E
temp.,
°C
wind,
m/s
gust,
m/s
humid.,
%
clouds,
%
prec.,
mm/h
press.,
hPa
HPBL,
m
4 march, thu
thu400:00−1w36850 0.0 1024163
03:00−1w36830 0.0 1025179
06:00−1wsw36810 0.0 1025154
09:00+2wsw59640 0.0 1024486
12:00+5wsw710500 0.0 10231085
15:00+7wsw812550 0.0 10211312
18:00+4wsw613660 0.0 1019582
21:00+3sw717800 0.0 1019618
5 march, fri
fri500:00+2sw8188237 0.0 1018699
03:00+2wsw8178358 0.0 1017668
06:00+2sw817850 0.0 1017638
09:00+4wsw9167714 0.0 1017736
12:00+7wsw9136798 0.0 1016943
15:00+9wsw8126099 0.0 10151171
18:00+7sw496994 0.0 1015248
21:00+5sw5137396 0.0 1016510
6 march, sat
sat600:00+3sw51678100 0.0 1015576
03:00+3ssw51578100 0.0 1014556
06:00+3sw6187791 0.0 1013659
09:00+6wsw9177496 0.0 1012813
12:00+10wsw10146685 0.0 10121300
15:00+9w9127692 0.2 10121213
18:00+2nw61090100 1.6 1014685
21:00+2nw71079100 1.9 1018932
7 march, sun
sun700:00−1nw71163100 0.1 10201025
03:00−2nw6105856 0.1 10231312
06:00−2wnw69520 0.0 10251235
09:00−1wnw67490 0.0 10271081
12:00+1w57400 0.0 10261302
15:00+2w68400 0.0 10241426
18:000w49510 0.0 1023414
21:00−2wsw612610 0.0 1022536
8 march, mon
mon800:00−1wsw614640 0.0 1021634
03:00−1sw7146414 0.0 1020629
06:00−1sw614710 0.0 1019646
09:00+2wsw9136012 0.0 10181105
12:00+5wsw10135792 0.0 10171531
15:00+5wsw9125596 0.1 10161639
18:00+3wsw5126292 0.0 1016468
21:000sw4107470 0.0 1017265